EW2826 Weather Reports


Display with metric or nautical units.
time (UTC)temp
F
wind
direction
speed
MPH
gust
MPH
rain 1hr
in
rain 24hr
in
rain mn
in
humidity
%
barometer
mb
20260509224001 57 181 2.0 5.0 0.00 0.00 0.00 56 1026.6
20260509223001 57 24 2.0 5.0 0.00 0.00 0.00 56 1026.6
20260509222001 57 99 2.0 6.0 0.00 0.00 0.00 55 1026.5
20260509221001 58 74 2.0 3.0 0.00 0.00 0.00 54 1026.4
20260509220001 59 50 2.0 3.0 0.00 0.00 0.00 53 1026.2
20260509215001 59 22 2.0 3.0 0.00 0.00 0.00 53 1026.2
20260509214001 59 31 3.0 6.0 0.00 0.00 0.00 52 1026.1
20260509213001 59 20 4.0 8.0 0.00 0.00 0.00 52 1026.1
20260509211001 59 24 5.0 8.0 0.00 0.00 0.00 51 1026.0
20260509210001 59 31 4.0 8.0 0.00 0.00 0.00 51 1026.0
20260509205022 59 24 2.0 6.0 0.00 0.00 0.00 51 1026.0
20260509204001 60 32 4.0 9.0 0.00 0.00 0.00 51 1025.8
20260509203023 60 17 7.0 13.0 0.00 0.00 0.00 50 1025.5
20260509202001 60 25 4.0 12.0 0.00 0.00 0.00 50 1025.4
20260509201001 60 30 4.0 8.0 0.00 0.00 0.00 50 1025.4
20260509200001 60 12 4.0 9.0 0.00 0.00 0.00 50 1025.5
20260509195001 60 5 4.0 8.0 0.00 0.00 0.00 50 1025.4
20260509194001 60 44 2.0 6.0 0.00 0.00 0.00 49 1025.5
20260509193001 60 8 3.0 6.0 0.00 0.00 0.00 49 1025.4
20260509192002 60 28 5.0 9.0 0.00 0.00 0.00 48 1025.3
20260509191001 61 67 2.0 5.0 0.00 0.00 0.00 48 1025.3
20260509185001 61 34 3.0 6.0 0.00 0.00 0.00 47 1025.3
20260509184001 61 35 3.0 6.0 0.00 0.00 0.00 48 1025.3
20260509183001 61 6 5.0 8.0 0.00 0.00 0.00 48 1025.3
20260509182001 60 10 2.0 5.0 0.00 0.00 0.00 49 1025.2
20260509181001 59 53 3.0 10.0 0.00 0.00 0.00 51 1025.2
20260509180001 57 216 1.0 5.0 0.00 0.00 0.00 53 1025.4
20260509175001 56 161 2.0 5.0 0.00 0.00 0.00 54 1025.5
20260509174001 57 237 2.0 5.0 0.00 0.00 0.00 53 1025.5
20260509173002 57 198 2.0 6.0 0.00 0.00 0.00 52 1025.5
20260509172022 57 146 1.0 6.0 0.00 0.00 0.00 52 1025.5
20260509171022 57 100 1.0 3.0 0.00 0.00 0.00 53 1025.5
20260509170001 57 237 0.0 3.0 0.00 0.00 0.00 51 1025.5
20260509165001 56 217 1.0 3.0 0.00 0.00 0.00 53 1025.5
20260509164001 56 206 2.0 5.0 0.00 0.00 0.00 53 1025.6
20260509163001 56 210 2.0 5.0 0.00 0.00 0.00 52 1025.7
20260509162125 57 235 1.0 5.0 0.00 0.00 0.00 51 1025.7
20260509161022 58 211 2.0 6.0 0.00 0.00 0.00 49 1025.7
20260509160001 58 205 1.0 1.0 0.00 0.00 0.00 48 1025.7
20260509155007 59 118 1.0 2.0 0.00 0.00 0.00 47 1025.8
20260509154001 59 84 2.0 5.0 0.00 0.00 0.00 47 1025.9
20260509153001 59 77 1.0 3.0 0.00 0.00 0.00 47 1025.9
20260509152002 59 91 2.0 7.0 0.00 0.00 0.00 46 1026.0
20260509151001 59 83 3.0 5.0 0.00 0.00 0.00 47 1026.0
20260509150001 59 93 2.0 5.0 0.00 0.00 0.00 46 1026.0
20260509145001 60 94 2.0 5.0 0.00 0.00 0.00 46 1026.1
20260509144001 60 86 1.0 2.0 0.00 0.00 0.00 45 1026.2
20260509143001 60 96 2.0 3.0 0.00 0.00 0.00 45 1026.1
20260509142001 61 86 2.0 3.0 0.00 0.00 0.00 44 1026.2
20260509141001 61 84 2.0 5.0 0.00 0.00 0.00 43 1026.2
20260509140001 61 84 2.0 5.0 0.00 0.00 0.00 43 1026.2
20260509135001 62 81 3.0 6.0 0.00 0.00 0.00 42 1026.1
20260509134022 62 87 3.0 6.0 0.00 0.00 0.00 42 1026.1
20260509133022 62 91 2.0 5.0 0.00 0.00 0.00 42 1026.1
20260509132002 62 92 3.0 5.0 0.00 0.00 0.00 41 1026.0
20260509131001 63 82 3.0 5.0 0.00 0.00 0.00 40 1026.0
20260509130001 63 93 2.0 6.0 0.00 0.00 0.00 40 1025.9
20260509125001 63 88 2.0 6.0 0.00 0.00 0.00 40 1025.9
20260509124001 63 23 1.0 2.0 0.00 0.00 0.00 40 1025.8
20260509123001 63 87 2.0 3.0 0.00 0.00 0.00 40 1025.8
20260509122001 62 81 1.0 2.0 0.00 0.00 0.00 40 1025.8
20260509121002 62 68 1.0 2.0 0.00 0.00 0.00 40 1025.7
20260509120002 62 108 2.0 3.0 0.00 0.00 0.00 41 1025.6
20260509115001 62 85 3.0 5.0 0.00 0.00 0.00 42 1025.6
20260509114001 62 99 2.0 5.0 0.00 0.00 0.00 43 1025.6
20260509113001 62 113 1.0 2.0 0.00 0.00 0.00 43 1025.6
20260509112001 62 105 1.0 2.0 0.00 0.00 0.00 43 1025.6
20260509111002 63 109 2.0 3.0 0.00 0.00 0.00 42 1025.6
20260509110022 63 106 1.0 1.0 0.00 0.00 0.00 42 1025.6
20260509105001 64 92 2.0 5.0 0.00 0.00 0.00 41 1025.6
20260509104002 64 92 2.0 3.0 0.00 0.00 0.00 42 1025.6
20260509102022 65 83 2.0 2.0 0.00 0.00 0.00 42 1025.4
20260509101001 66 105 1.0 2.0 0.00 0.00 0.00 40 1025.4
20260509100001 67 104 1.0 2.0 0.00 0.00 0.00 39 1025.3
20260509095022 68 99 1.0 1.0 0.00 0.00 0.00 38 1025.3
20260509094003 68 99 2.0 2.0 0.00 0.00 0.00 37 1025.2
20260509093002 69 112 1.0 2.0 0.00 0.00 0.00 36 1025.2
20260509092001 70 93 2.0 3.0 0.00 0.00 0.00 35 1025.2
20260509091001 71 90 2.0 3.0 0.00 0.00 0.00 34 1025.2
20260509090022 71 82 3.0 5.0 0.00 0.00 0.00 33 1025.2
20260509085022 71 82 3.0 5.0 0.00 0.00 0.00 33 1025.1
20260509084022 72 80 2.0 3.0 0.00 0.00 0.00 32 1025.1
20260509083001 72 87 2.0 6.0 0.00 0.00 0.00 32 1025.0
20260509082002 72 75 3.0 6.0 0.00 0.00 0.00 32 1025.0
20260509081022 73 64 2.0 3.0 0.00 0.00 0.00 33 1025.1
20260509080001 73 59 4.0 7.0 0.00 0.00 0.00 31 1025.0
20260509075001 74 11 3.0 5.0 0.00 0.00 0.00 31 1025.0
20260509074001 74 77 3.0 6.0 0.00 0.00 0.00 30 1024.8
20260509073002 73 17 3.0 6.0 0.00 0.00 0.00 32 1024.8
20260509072023 73 73 3.0 6.0 0.00 0.00 0.00 32 1024.7
20260509071001 73 63 4.0 9.0 0.00 0.00 0.00 32 1024.7
20260509070023 73 75 8.0 15.0 0.00 0.00 0.00 31 1024.5
20260509065001 74 67 3.0 6.0 0.00 0.00 0.00 31 1024.5
20260509064001 73 88 7.0 14.0 0.00 0.00 0.00 32 1024.4
20260509063002 74 58 4.0 7.0 0.00 0.00 0.00 33 1024.5
20260509062001 73 71 3.0 7.0 0.00 0.00 0.00 34 1024.4
20260509061022 73 9 5.0 9.0 0.00 0.00 0.00 33 1024.4
20260509060022 73 35 6.0 15.0 0.00 0.00 0.00 33 1024.6
20260509055002 73 85 5.0 8.0 0.00 0.00 0.00 33 1024.7
20260509054001 72 84 4.0 7.0 0.00 0.00 0.00 34 1024.8
20260509053002 73 77 4.0 8.0 0.00 0.00 0.00 34 1024.9
20260509052001 72 96 4.0 7.0 0.00 0.00 0.00 35 1025.0
20260509051002 72 58 6.0 12.0 0.00 0.00 0.00 35 1025.2
20260509050001 72 104 5.0 9.0 0.00 0.00 0.00 37 1025.3
20260509045022 72 94 3.0 7.0 0.00 0.00 0.00 37 1025.5
20260509044001 71 86 5.0 10.0 0.00 0.00 0.00 38 1025.6
20260509043023 71 82 7.0 10.0 0.00 0.00 0.00 38 1026.0
20260509042001 71 103 5.0 9.0 0.00 0.00 0.00 37 1026.2
20260509041022 70 23 4.0 7.0 0.00 0.00 0.00 37 1026.5
20260509040022 70 2 4.0 8.0 0.00 0.00 0.00 38 1026.6
20260509035001 69 31 4.0 10.0 0.00 0.00 0.00 39 1026.9
20260509034023 69 25 5.0 9.0 0.00 0.00 0.00 38 1027.1
20260509032023 69 37 1.0 3.0 0.00 0.00 0.00 39 1027.6
20260509031001 68 46 3.0 5.0 0.00 0.00 0.00 40 1027.9
20260509030023 68 47 4.0 7.0 0.00 0.00 0.00 40 1027.9
20260509025001 68 43 3.0 7.0 0.00 0.00 0.00 43 1028.0
20260509024001 67 29 4.0 6.0 0.00 0.00 0.00 42 1028.2
20260509023022 66 78 5.0 10.0 0.00 0.00 0.00 44 1028.2
20260509022002 66 24 3.0 7.0 0.00 0.00 0.00 45 1028.4
20260509021001 65 11 4.0 9.0 0.00 0.00 0.00 46 1028.4
20260509020001 64 65 3.0 8.0 0.00 0.00 0.00 47 1028.5
20260509015001 63 28 7.0 14.0 0.00 0.00 0.00 46 1028.7
20260509014001 63 25 4.0 10.0 0.00 0.00 0.00 47 1028.7
20260509013002 62 4 4.0 8.0 0.00 0.00 0.00 48 1028.8
20260509012002 62 28 5.0 10.0 0.00 0.00 0.00 49 1028.8
20260509011002 61 20 8.0 15.0 0.00 0.00 0.00 49 1028.9
20260509010002 61 86 5.0 9.0 0.00 0.00 0.00 50 1029.0
20260509005022 60 20 6.0 9.0 0.00 0.00 0.00 50 1029.0
20260509004001 60 50 3.0 8.0 0.00 0.00 0.00 50 1029.0
20260509003001 60 27 4.0 9.0 0.00 0.00 0.00 51 1028.8
20260509002001 59 29 4.0 8.0 0.00 0.00 0.00 52 1028.8
20260509001001 59 49 2.0 5.0 0.00 0.00 0.00 53 1028.8
20260509000001 58 23 4.0 8.0 0.00 0.00 0.00 54 1028.7
20260508235001 57 37 4.0 7.0 0.00 0.00 0.00 55 1028.6
20260508234001 56 89 4.0 9.0 0.00 0.00 0.00 56 1028.5
20260508233022 56 69 3.0 6.0 0.00 0.00 0.00 56 1028.5
20260508232023 56 72 2.0 6.0 0.00 0.00 0.00 56 1028.6
20260508231001 56 28 2.0 6.0 0.00 0.00 0.00 56 1028.5
20260508230001 56 58 3.0 7.0 0.00 0.00 0.00 56 1028.4
20260508225022 57 5 3.0 6.0 0.00 0.00 0.00 55 1028.4